Regional Weather Roundup
Issued by NWS

Home | Current Version | Previous Version | Graphics & Text | Print | Product List | Glossary On
Versions: 1 2 3 4 5 6 7 8 9 10 11 12 13 14 15 16 17 18 19 20 21 22 23 24 25 26 27 28 29 30 31 32 33 34 35 36 37 38 39 40 41 42 43 44 45 46 47 48 49 50
000
ASUS45 KBOI 181710
RWRID
WEATHER ROUNDUP FOR IDAHO
NATIONAL WEATHER SERVICE BOISE ID
1100 AM MDT THU SEP 18 2014

NOTE: "FAIR" INDICATES FEW OR NO CLOUDS BELOW 12000 FEET
WITH NO SIGNIFICANT WEATHER AND/OR OBSTRUCTIONS TO VISIBILITY

IDZ012-014-181800-
SOUTHWEST IDAHO


CITY           SKY/WX    TMP DP  RH WIND       PRES   REMARKS
BOISE          CLOUDY    73  43  33 SE3       29.84R
CALDWELL       CLOUDY    72  52  49 CALM      29.83S
$$

IDZ016-017-181800-
SOUTHCENTRAL IDAHO


CITY           SKY/WX    TMP DP  RH WIND       PRES   REMARKS
BURLEY         SUNNY     77  47  34 SW17      29.88
JEROME         MOSUNNY   73  53  49 W6        29.90R
TWIN FALLS     PTSUNNY   74  45  35 W9        29.90
$$

IDZ019>023-181800-
SOUTHEAST IDAHO


CITY           SKY/WX    TMP DP  RH WIND       PRES   REMARKS
IDAHO FALLS    PTSUNNY   72  54  53 S6        29.92F
POCATELLO      MOSUNNY   82  52  35 W14       29.89S
REXBURG        PTSUNNY   70  51  51 SW9       29.93S
$$

IDZ006-010-011-018-031-032-181800-
CENTRAL IDAHO MOUNTAINS


CITY           SKY/WX    TMP DP  RH WIND       PRES   REMARKS
MCCALL         PTSUNNY   63  46  54 CALM      29.92S HAZE
HAILEY         MOSUNNY   70  54  56 NW10      29.97S
STANLEY          N/A     56  47  71 CALM      30.08R
SALMON         CLOUDY    61  48  63 S3        29.91R
CHALLIS        CLOUDY    62  50  64 CALM      29.96S
$$

IDZ002-004-006-007-026-181800-
NORTHERN IDAHO


CITY           SKY/WX    TMP DP  RH WIND       PRES   REMARKS
LEWISTON       MOSUNNY   72  49  44 E5        29.75S
LOWELL           N/A     62  57  83 CALM      29.79S
COEUR D`ALENE  MOSUNNY   66  45  45 S10       29.75S
MULLAN PASS    PTSUNNY   59  39  47 S8        29.90R
$$


USA.gov is the U.S. government's official web portal to all federal, state and local government web resources and services.